TimeEST,TemperatureF,Dew PointF,Humidity,Sea Level PressureIn,VisibilityMPH,Wind Direction,Wind SpeedMPH,Gust SpeedMPH,PrecipitationIn,Events,Conditions,WindDirDegrees,DateUTC
12:54 AM,41.0,28.4,61,29.92,10.0,SW,8.1,-,N/A,,Clear,220,2013-01-20 05:54:00
1:54 AM,41.0,28.0,60,29.91,10.0,SW,9.2,-,N/A,,Clear,230,2013-01-20 06:54:00
2:54 AM,41.0,28.4,61,29.89,10.0,SW,9.2,-,N/A,,Clear,220,2013-01-20 07:54:00
3:54 AM,41.0,28.0,60,29.86,10.0,SW,6.9,-,N/A,,Clear,220,2013-01-20 08:54:00
4:54 AM,41.0,28.0,60,29.83,10.0,SW,12.7,20.7,N/A,,Clear,220,2013-01-20 09:54:00
5:54 AM,41.0,28.0,60,29.82,10.0,SW,10.4,-,N/A,,Clear,220,2013-01-20 10:54:00
6:54 AM,39.2,28.4,65,29.81,10.0,SSW,11.5,19.6,N/A,,Clear,210,2013-01-20 11:54:00
7:54 AM,41.0,28.0,60,29.81,10.0,SW,10.4,16.1,N/A,,Clear,220,2013-01-20 12:54:00
8:54 AM,43.0,28.0,56,29.82,10.0,SW,15.0,24.2,N/A,,Clear,230,2013-01-20 13:54:00
9:54 AM,46.9,28.9,50,29.83,10.0,SW,10.4,17.3,N/A,,Clear,230,2013-01-20 14:54:00
10:54 AM,51.1,28.0,41,29.81,10.0,SW,11.5,-,N/A,,Clear,230,2013-01-20 15:54:00
11:54 AM,54.0,27.0,35,29.78,10.0,West,24.2,34.5,N/A,,Clear,270,2013-01-20 16:54:00
12:54 PM,54.0,28.0,37,29.77,10.0,West,21.9,32.2,N/A,,Partly Cloudy,270,2013-01-20 17:54:00
1:54 PM,54.0,21.0,28,29.78,10.0,West,20.7,33.4,N/A,,Clear,270,2013-01-20 18:54:00
2:54 PM,54.0,19.9,26,29.81,10.0,West,26.5,35.7,N/A,,Clear,280,2013-01-20 19:54:00
3:54 PM,51.1,16.0,25,29.85,10.0,WNW,16.1,24.2,N/A,,Clear,300,2013-01-20 20:54:00
4:54 PM,48.0,14.0,26,29.89,10.0,NW,11.5,26.5,N/A,,Clear,310,2013-01-20 21:54:00
5:54 PM,44.1,10.9,26,29.93,10.0,WNW,25.3,32.2,N/A,,Clear,300,2013-01-20 22:54:00
6:54 PM,39.9,14.0,35,29.98,10.0,WNW,18.4,25.3,N/A,,Clear,300,2013-01-20 23:54:00
7:54 PM,37.0,14.0,39,30.01,10.0,NW,12.7,23.0,N/A,,Clear,310,2013-01-21 00:54:00
8:54 PM,35.1,10.9,37,30.04,10.0,NW,17.3,23.0,N/A,,Clear,320,2013-01-21 01:54:00
9:54 PM,33.1,10.0,38,30.06,10.0,WNW,11.5,16.1,N/A,,Clear,300,2013-01-21 02:54:00
10:54 PM,32.0,8.1,37,30.08,10.0,WNW,18.4,27.6,N/A,,Clear,300,2013-01-21 03:54:00
11:54 PM,30.0,9.0,41,30.09,10.0,NNW,10.4,-,N/A,,Clear,330,2013-01-21 04:54:00